Regional Weather Roundup
Issued by NWS Northern Indiana

Home | Current Version | Previous Version | Graphics & Text | Print | Product List | Glossary On
Versions: 1 2 3 4 5 6 7 8 9 10 11 12 13 14 15 16 17 18 19 20 21 22 23 24 25 26 27 28 29 30 31 32 33 34 35 36 37 38 39 40 41 42 43 44 45 46 47 48 49 50
000
ASUS43 KIWX 151700
RWRIWX

KIWX WEATHER ROUNDUP
NATIONAL WEATHER SERVICE NORTHERN INDIANA
1200 PM EST FRI DEC 15 2017

NOTE: "FAIR" INDICATES FEW OR NO CLOUDS BELOW 12,000 FEET WITH NO
SIGNIFICANT WEATHER AND/OR OBSTRUCTIONS TO VISIBILITY.

* THESE STATIONS ARE NOT UNDER NWS QUALITY CONTROL. THEY ALSO MAY NOT
  REPORT WEATHER SUCH AS PRECIPITATION OR FOG.

INZ001>027-151800-
NORTHERN INDIANA

CITY           SKY/WX    TMP DP  RH WIND       PRES   REMARKS
GARY*          PTSUNNY   30  14  51 W18G32    29.95S WCI  18
MICHIGAN CITY* FLURRIES  28  18  64 W15G21    29.92F WCI  17
SOUTH BEND     MIX PCPN  25  19  78 W15       29.90S WCI  13
ELKHART*       FLURRIES  25  19  80 SW12      29.88F WCI  14
GOSHEN         LGT SNOW  25  20  81 W15       29.89F WCI  13
MONTICELLO*    CLOUDY    28  17  63 W16G28    29.97S WCI  16
FORT WAYNE     FLURRIES  26  20  77 W18       29.91F WCI  13
PERU/GRISSOM   CLOUDY    28  21  76 W21       29.93F WCI  14

$$
INZ028>050-151800-
CENTRAL INDIANA

CITY           SKY/WX    TMP DP  RH WIND       PRES   REMARKS
LAFAYETTE      CLOUDY    29  20  69 W14G24    29.99F WCI  18
KOKOMO*        CLOUDY    28  21  75 W20       29.96F WCI  15
MUNCIE*        CLOUDY    29  18  63 W12G22    29.95F WCI  19
INDIANAPOLIS   CLOUDY    29  19  66 SW15      30.01F WCI  18

$$
MIZ043>046-050>051-056>058-064>065-071>073-077>080-151800-
SOUTHWEST LOWER MICHIGAN

CITY           SKY/WX    TMP DP  RH WIND       PRES   REMARKS
BATTLE CREEK   LGT SNOW  24  20  84 SW18      29.80F FOG     WCI  10
BENTON HARBOR  CLOUDY    27  14  58 W17G29    29.89S WCI  14
COLDWATER*     FLURRIES  24  19  82 SW13G22   29.83F WCI  13
HILLSDALE*     FLURRIES  23  18  80 SW13G20   29.80F WCI  11
HOLLAND        LGT SNOW  26  19  74 W16G25    29.84S VSB 1   WCI  14
GRAND RAPIDS   LGT SNOW  26  20  77 W10       29.80S FOG     WCI  16
KALAMAZOO      CLOUDY    26  18  71 W18G30    29.83S HAZE    WCI  13
STURGIS*       FLURRIES  26  21  81 W16G22    29.84F WCI  13
THREE RIVERS*  LGT SNOW  26  22  84 W10G16    29.86F WCI  16

$$
OHZ001>008-015>018-024>025-151800-
NORTHWEST OHIO

CITY           SKY/WX    TMP DP  RH WIND       PRES   REMARKS
DEFIANCE       CLOUDY    25  18  74 SW12G21   29.89F WCI  14
FINDLAY        CLOUDY    27  16  63 SW15G25   29.89F WCI  15
TOLEDO EXPRESS CLOUDY    26  19  74 SW15G24   29.87F WCI  14
TOLEDO METCALF CLOUDY    26  18  71 SW18      29.88F WCI  13
LIMA           CLOUDY    27  19  72 SW21G29   29.90F WCI  13

$$
AND FOR LAKE MICHIGAN COASTAL AND OPEN LAKE BUOY OBSERVATIONS

STATION/POSITION TEMP    WIND        PRES    VSBY  WAVE
                 AIR SEA DIR/SP/G                  HT/PER
                 (F)     (DEG/KT/KT) (MB)    (MI)  (FT/S)
CALUMET HARBOR    28     240/ 10/ 17 1013.3R
MICHIGAN CITY     27     280/ 27/ 31   N/A
BURNS HARBOR      28     280/ 17/ 22 1013.9R
SAINT JOSEPH      29     280/ 19/ 25 1013.2

$$
&&




USA.gov is the U.S. government's official web portal to all federal, state and local government web resources and services.